Time,TemperatureF,DewpointF,PressureIn,WindDirection,WindDirectionDegrees,WindSpeedMPH,WindSpeedGustMPH,Humidity,HourlyPrecipIn,Conditions,Clouds,dailyrainin,SoftwareType,DateUTC
2014-12-26 00:06:00,38.0,37.0,30.25,WNW,294,0.0,0.0,94,0.00,,,0.00,weatherlink.com 1.10,2014-12-26 05:06:00,
2014-12-26 00:21:00,37.8,36.0,30.25,WNW,294,0.0,0.0,94,0.00,,,0.00,weatherlink.com 1.10,2014-12-26 05:21:00,
2014-12-26 00:36:00,37.7,36.0,30.24,WNW,294,0.0,1.0,94,0.00,,,0.00,weatherlink.com 1.10,2014-12-26 05:36:00,
2014-12-26 00:51:00,37.6,36.0,30.23,WNW,294,0.0,1.0,93,0.00,,,0.00,weatherlink.com 1.10,2014-12-26 05:51:00,
2014-12-26 01:06:00,37.6,36.0,30.23,WNW,294,0.0,0.0,93,0.00,,,0.00,weatherlink.com 1.10,2014-12-26 06:06:00,
2014-12-26 01:21:00,37.3,36.0,30.24,WNW,294,0.0,1.0,93,0.00,,,0.00,weatherlink.com 1.10,2014-12-26 06:21:00,
2014-12-26 01:36:00,37.2,36.0,30.24,WNW,294,0.0,0.0,94,0.00,,,0.00,weatherlink.com 1.10,2014-12-26 06:36:00,
2014-12-26 01:51:00,37.0,35.0,30.24,WNW,294,0.0,1.0,93,0.00,,,0.00,weatherlink.com 1.10,2014-12-26 06:51:00,
2014-12-26 02:06:00,36.8,35.0,30.24,WNW,294,0.0,0.0,94,0.00,,,0.00,weatherlink.com 1.10,2014-12-26 07:06:00,
2014-12-26 02:21:00,36.5,35.0,30.24,WNW,294,0.0,0.0,94,0.00,,,0.00,weatherlink.com 1.10,2014-12-26 07:21:00,
2014-12-26 02:36:00,36.0,35.0,30.25,WNW,294,0.0,0.0,94,0.00,,,0.00,weatherlink.com 1.10,2014-12-26 07:36:00,
2014-12-26 02:51:00,35.5,34.0,30.25,WNW,294,0.0,0.0,94,0.00,,,0.00,weatherlink.com 1.10,2014-12-26 07:51:00,
2014-12-26 03:06:00,35.0,34.0,30.26,WNW,294,0.0,0.0,94,0.00,,,0.00,weatherlink.com 1.10,2014-12-26 08:06:00,
2014-12-26 03:21:00,34.6,33.0,30.26,WNW,294,0.0,0.0,94,0.00,,,0.00,weatherlink.com 1.10,2014-12-26 08:21:00,
2014-12-26 03:36:00,34.3,33.0,30.26,WNW,294,0.0,0.0,95,0.00,,,0.00,weatherlink.com 1.10,2014-12-26 08:36:00,
2014-12-26 03:51:00,34.1,33.0,30.26,WNW,294,0.0,0.0,95,0.00,,,0.00,weatherlink.com 1.10,2014-12-26 08:51:00,
2014-12-26 04:06:00,33.9,33.0,30.27,WNW,294,0.0,0.0,95,0.00,,,0.00,weatherlink.com 1.10,2014-12-26 09:06:00,
2014-12-26 04:21:00,33.9,33.0,30.27,WNW,294,0.0,0.0,96,0.00,,,0.00,weatherlink.com 1.10,2014-12-26 09:21:00,
2014-12-26 04:36:00,34.1,33.0,30.26,WNW,294,0.0,0.0,96,0.00,,,0.00,weatherlink.com 1.10,2014-12-26 09:36:00,
2014-12-26 04:51:00,34.1,33.0,30.27,WNW,294,0.0,0.0,96,0.00,,,0.00,weatherlink.com 1.10,2014-12-26 09:51:00,
2014-12-26 05:06:00,34.2,33.0,30.28,WNW,294,0.0,0.0,96,0.00,,,0.00,weatherlink.com 1.10,2014-12-26 10:06:00,
2014-12-26 05:21:00,34.0,33.0,30.28,WNW,294,0.0,0.0,96,0.00,,,0.00,weatherlink.com 1.10,2014-12-26 10:21:00,
2014-12-26 05:36:00,33.8,33.0,30.28,WNW,294,0.0,0.0,96,0.00,,,0.00,weatherlink.com 1.10,2014-12-26 10:36:00,
2014-12-26 05:51:00,33.6,33.0,30.28,WNW,294,0.0,0.0,96,0.00,,,0.00,weatherlink.com 1.10,2014-12-26 10:51:00,
2014-12-26 06:06:00,33.3,32.0,30.29,WNW,294,0.0,0.0,96,0.00,,,0.00,weatherlink.com 1.10,2014-12-26 11:06:00,
2014-12-26 06:21:00,33.1,32.0,30.29,WNW,294,0.0,0.0,96,0.00,,,0.00,weatherlink.com 1.10,2014-12-26 11:21:00,
2014-12-26 06:36:00,32.8,32.0,30.30,WNW,294,0.0,0.0,96,0.00,,,0.00,weatherlink.com 1.10,2014-12-26 11:36:00,
2014-12-26 06:52:00,32.5,32.0,30.30,WNW,294,0.0,0.0,96,0.00,,,0.00,weatherlink.com 1.10,2014-12-26 11:52:00,
2014-12-26 07:07:00,32.3,31.0,30.31,WNW,294,0.0,0.0,96,0.00,,,0.00,weatherlink.com 1.10,2014-12-26 12:07:00,
2014-12-26 07:22:00,32.2,31.0,30.32,WNW,294,0.0,0.0,96,0.00,,,0.00,weatherlink.com 1.10,2014-12-26 12:22:00,
2014-12-26 07:37:00,32.2,31.0,30.32,WNW,294,0.0,0.0,96,0.00,,,0.00,weatherlink.com 1.10,2014-12-26 12:37:00,
2014-12-26 07:52:00,32.4,32.0,30.33,WNW,294,0.0,0.0,97,0.00,,,0.00,weatherlink.com 1.10,2014-12-26 12:52:00,
2014-12-26 08:07:00,32.6,32.0,30.34,WNW,294,0.0,0.0,97,0.00,,,0.00,weatherlink.com 1.10,2014-12-26 13:07:00,
2014-12-26 08:22:00,33.1,32.0,30.35,WNW,294,0.0,0.0,97,0.00,,,0.00,weatherlink.com 1.10,2014-12-26 13:22:00,
2014-12-26 08:37:00,33.8,33.0,30.35,WNW,294,0.0,0.0,97,0.00,,,0.00,weatherlink.com 1.10,2014-12-26 13:37:00,
2014-12-26 08:52:00,34.7,34.0,30.36,WNW,294,0.0,0.0,97,0.00,,,0.00,weatherlink.com 1.10,2014-12-26 13:52:00,
2014-12-26 09:07:00,35.5,35.0,30.36,WNW,294,0.0,0.0,98,0.00,,,0.00,weatherlink.com 1.10,2014-12-26 14:07:00,
2014-12-26 09:22:00,37.0,37.0,30.36,WNW,294,0.0,0.0,98,0.00,,,0.00,weatherlink.com 1.10,2014-12-26 14:22:00,
2014-12-26 09:37:00,38.4,38.0,30.36,WNW,294,0.0,0.0,98,0.00,,,0.00,weatherlink.com 1.10,2014-12-26 14:37:00,
2014-12-26 09:52:00,39.9,39.0,30.36,WNW,294,0.0,0.0,98,0.00,,,0.00,weatherlink.com 1.10,2014-12-26 14:52:00,
2014-12-26 10:07:00,41.8,41.0,30.37,WNW,294,0.0,0.0,97,0.00,,,0.00,weatherlink.com 1.10,2014-12-26 15:07:00,
2014-12-26 10:22:00,44.1,39.0,30.37,WNW,294,0.0,0.0,83,0.00,,,0.00,weatherlink.com 1.10,2014-12-26 15:22:00,
2014-12-26 10:37:00,46.2,41.0,30.36,WNW,294,0.0,0.0,81,0.00,,,0.00,weatherlink.com 1.10,2014-12-26 15:37:00,
2014-12-26 10:52:00,47.9,39.0,30.35,SW,215,0.0,3.0,70,0.00,,,0.00,weatherlink.com 1.10,2014-12-26 15:52:00,
2014-12-26 11:07:00,49.0,39.0,30.35,SW,215,1.0,1.0,68,0.00,,,0.00,weatherlink.com 1.10,2014-12-26 16:07:00,
2014-12-26 11:22:00,50.3,39.0,30.34,SW,227,0.0,3.0,65,0.00,,,0.00,weatherlink.com 1.10,2014-12-26 16:22:00,
2014-12-26 11:37:00,51.4,39.0,30.33,SSW,192,0.0,3.0,64,0.00,,,0.00,weatherlink.com 1.10,2014-12-26 16:37:00,
2014-12-26 11:52:00,52.7,39.0,30.33,SSW,211,0.0,4.0,61,0.01,,,0.01,weatherlink.com 1.10,2014-12-26 16:52:00,